Location: Newark
(46.7000°N, 60.6000°W)
Time: 03:32:48
(UTC+00:00)

Vanguard 3 - Pass Details

Date: 07 November 2020
Orbit: 508 x 3262 km, 33.3° (Epoch: 26 November)

Event Time Altitude Azimuth Distance (km) Brightness Sun altitude
Rises 11:52:18 0° 273° (W) 6,412 11.2 7.9°
Reaches altitude 10° 11:56:38 10° 266° (W) 5,679 11.0 8.5°
Maximum altitude 12:12:34 38° 207° (SSW) 4,290 11.1 10.7°
Drops below altitude 10° 12:29:01 10° 149° (SSE) 5,828 13.4 12.8°
Sets 12:33:36 0° 141° (SE) 6,585 13.7 13.4°
